changsha , China , ASIA

  • Monday
    February 25

    Overcast  Light rain

    54 °F  41 °F

    Northeast  Northeast

        

  • Tuesday
    February 26

    Light rain  Moderate rain

    50 °F  45 °F

    North  North

        

  • Wednesday
    February 27

    Light rain  Light rain

    46 °F  43 °F

    North  North

        

  • Thursday
    February 28

    Shower  Shower

    52 °F  43 °F

    East  South

        

  • Friday
    March 1

    Light rain  Light rain

    55 °F  45 °F

    Northeast  Northwest

        

  • Saturday
    March 2

    Light rain  Cloudy

    50 °F  41 °F

    North  North

        

  • Sunday
    March 3

    Cloudy  Cloudy

    52 °F  39 °F

    North  North

        

Date   Weather Temperature Humidity Total_rain Visibility Wind
11:00 Overcast 51°F 84.8% 0mm 999.9km Southwest  0.7m/s
14:00 Overcast 53°F 84.9% 0mm 999.9km Northeast  1.0m/s
17:00 Overcast 51°F 85.3% 0mm 999.9km Northeast  0.9m/s
20:00 Overcast 49°F 90% 0mm 999.9km Northeast  0.9m/s
23:00 Light rain 44°F 95% 2.3mm 999.9km Northeast  1.0m/s
02:00 Light rain 43°F 97.5% 2.3mm 999.9km Northeast  1.0m/s
05:00 Light rain 41°F 98% 2.3mm 999.9km Northeast  1.7m/s
08:00 Light rain 43°F 97.4% 2.3mm 999.9km Northeast  1.5m/s
11:00 Light rain 47°F 90.9% 0.1mm 999.9km Northeast  1.0m/s
14:00 Light rain 50°F 92.5% 0.2mm 999.9km Northeast  1.3m/s
17:00 Light rain 48°F 96.9% 1mm 999.9km Northeast  1.1m/s
20:00 Moderate rain 48°F 97.4% 4.2mm 999.9km Northeast  1.9m/s
23:00 Moderate rain 48°F 98% 4.7mm 999.9km Northeast  1.5m/s
02:00 Moderate rain 48°F 98% 4.1mm 999.9km Northeast  2.8m/s
05:00 Moderate rain 47°F 97.6% 8.3mm 999.9km Northeast  2.4m/s
08:00 Moderate rain 45°F 88.1% 6.2mm 999.9km Northwest  4.5m/s
11:00 Light rain 44°F 92.2% 2.9mm 999.9km Northwest  3.0m/s
14:00 Light rain 44°F 99% 2.3mm 999.9km Northwest  2.7m/s
17:00 Moderate rain 45°F 98.9% 4mm 999.9km Northwest  3.2m/s
20:00 Light rain 46°F 98.7% 0.2mm 999.9km Northwest  2.7m/s
23:00 Light rain 45°F 98.7% 0.8mm 999.9km Northwest  2.5m/s
02:00 Light rain 44°F 98.7% 1.4mm 999.9km Northwest  2.0m/s
05:00 Overcast 44°F 98.6% 0mm 999.9km Northwest  2.0m/s
08:00 Light rain 43°F 92.2% 0.5mm 999.9km Northwest  1.9m/s
11:00 Shower 51°F 92.1% 4.7mm 999.9km Northeast  1.0m/s
14:00 Shower 51°F 98.8% 1.7mm 999.9km Northwest  1.9m/s
17:00 Shower 49°F 98.7% 0.5mm 999.9km Northeast  1.2m/s
20:00 Shower 48°F 97.2% 0.1mm 999.9km Southeast  0.7m/s
23:00 Cloudy 45°F 99% 0mm 999.9km Northeast  0.8m/s
02:00 Cloudy 45°F 98.5% 0mm 999.9km Northeast  0.8m/s
05:00 Cloudy 43°F 98.4% 0mm 999.9km Northeast  1.3m/s
08:00 Shower 45°F 92.2% 1mm 999.9km Southeast  1.1m/s
11:00 Light rain 45°F 92% 2.1mm 999.9km Southeast  2.1m/s
14:00 Light rain 55°F 97.5% 0.9mm 999.9km Southwest  2.2m/s
17:00 Light rain 55°F 97.3% 0.4mm 999.9km Northeast  2.5m/s
20:00 Light rain 51°F 97.2% 0.9mm 999.9km Northeast  2.2m/s
23:00 Cloudy 49°F 96.5% 0mm 999.9km Southeast  1.9m/s
02:00 Moderate rain 48°F 99% 9.7mm 999.9km Southeast  3.6m/s
05:00 Light rain 49°F 98% 0.1mm 999.9km Northwest  2.5m/s
08:00 Light rain 50°F 92.3% 0.1mm 999.9km Northwest  2.0m/s
11:00 Light rain 49°F 92.3% 0.1mm 999.9km Northwest  3.0m/s
14:00 Light rain 50°F 97.5% 2.4mm 999.9km Northeast  3.5m/s
17:00 Light rain 49°F 97.2% 0.1mm 999.9km Northwest  4.3m/s
20:00 Moderate rain 47°F 97.4% 7.2mm 999.9km Northwest  3.3m/s
23:00 Cloudy 44°F 97.6% 0mm 999.9km Northwest  2.4m/s
02:00 Cloudy 43°F 99% 0mm 999.9km Northwest  3.1m/s
05:00 Cloudy 42°F 97.4% 0mm 999.9km Northwest  2.3m/s
08:00 Cloudy 41°F 92.2% 0mm 999.9km Northwest  2.3m/s
11:00 Cloudy 47°F 91% 0mm 999.9km Northwest  2.1m/s
14:00 Cloudy 48°F 95% 0mm 999.9km Northwest  3.5m/s
17:00 Cloudy 43°F 94.3% 0mm 999.9km Northeast  2.1m/s
20:00 Cloudy 40°F 95.4% 0mm 999.9km Northwest  1.4m/s
23:00 Cloudy 44°F 96.5% 0mm 999.9km Northwest  1.1m/s
02:00 Cloudy 44°F 96.9% 0mm 999.9km Northwest  2.2m/s
05:00 Cloudy 45°F 97% 0mm 999.9km Northwest  0.3m/s
233| 287| 806| 202| 663| 420| 139| 446| 989| 559|